Time,TemperatureF,DewpointF,PressureIn,WindDirection,WindDirectionDegrees,WindSpeedMPH,WindSpeedGustMPH,Humidity,HourlyPrecipIn,Conditions,Clouds,dailyrainin,SoftwareType,DateUTC
2013-04-19 00:01:00,78.3,73.0,30.03,SE,137,0.0,10.0,84,0.00,,,0.00,meteohub,2013-04-19 04:01:00,
2013-04-19 00:06:00,78.3,73.0,30.03,ESE,117,0.0,12.0,84,0.00,,,0.00,meteohub,2013-04-19 04:06:00,
2013-04-19 00:11:00,78.3,73.0,30.03,ENE,72,2.0,12.0,84,0.00,,,0.00,meteohub,2013-04-19 04:11:00,
2013-04-19 00:16:00,78.3,73.0,30.03,East,94,5.0,12.0,84,0.00,,,0.00,meteohub,2013-04-19 04:16:00,
2013-04-19 00:21:00,78.3,72.7,30.03,SSE,161,6.0,11.0,83,0.00,,,0.00,meteohub,2013-04-19 04:21:00,
2013-04-19 00:26:00,78.3,73.0,30.03,ENE,75,3.0,11.0,84,0.00,,,0.00,meteohub,2013-04-19 04:26:00,
2013-04-19 00:31:00,78.4,73.2,30.03,ESE,110,7.0,11.0,84,0.00,,,0.00,meteohub,2013-04-19 04:31:00,
2013-04-19 00:36:00,78.4,73.2,30.03,SSW,200,0.0,9.0,84,0.00,,,0.00,meteohub,2013-04-19 04:36:00,
2013-04-19 00:41:00,78.4,73.2,30.03,SE,124,3.0,9.0,84,0.00,,,0.00,meteohub,2013-04-19 04:41:00,
2013-04-19 00:46:00,78.4,73.2,30.03,NE,51,2.0,12.0,84,0.00,,,0.00,meteohub,2013-04-19 04:46:00,
2013-04-19 00:51:00,78.4,73.2,30.03,SSE,157,4.0,12.0,84,0.00,,,0.00,meteohub,2013-04-19 04:51:00,
2013-04-19 00:56:00,78.6,73.0,30.02,SSW,199,4.0,12.0,83,0.00,,,0.00,meteohub,2013-04-19 04:56:00,
2013-04-19 01:01:00,78.4,73.2,30.02,SE,142,5.0,18.0,84,0.00,,,0.00,meteohub,2013-04-19 05:01:00,
2013-04-19 01:06:00,78.4,73.2,30.02,SSE,159,0.0,18.0,84,0.00,,,0.00,meteohub,2013-04-19 05:06:00,
2013-04-19 01:12:00,78.3,73.4,30.02,South,169,1.0,18.0,85,0.00,,,0.00,meteohub,2013-04-19 05:12:00,
2013-04-19 01:17:00,78.3,73.0,30.02,ESE,123,3.0,11.0,84,0.00,,,0.00,meteohub,2013-04-19 05:17:00,
2013-04-19 01:22:00,78.3,72.7,30.01,SE,146,7.0,10.0,83,0.00,,,0.00,meteohub,2013-04-19 05:22:00,
2013-04-19 01:27:00,78.6,73.0,30.01,SSW,206,3.0,10.0,83,0.00,,,0.00,meteohub,2013-04-19 05:27:00,
2013-04-19 01:32:00,78.4,73.2,30.02,SSE,155,4.0,12.0,84,0.00,,,0.00,meteohub,2013-04-19 05:32:00,
2013-04-19 01:37:00,78.3,73.0,30.01,SSE,150,0.0,12.0,84,0.00,,,0.00,meteohub,2013-04-19 05:37:00,
2013-04-19 01:42:00,77.9,73.0,30.01,SSE,150,3.0,12.0,85,0.00,,,0.00,meteohub,2013-04-19 05:42:00,
2013-04-19 01:47:00,77.7,72.5,30.01,SSE,163,1.0,12.0,84,0.00,,,0.00,meteohub,2013-04-19 05:47:00,
2013-04-19 01:52:00,77.7,72.1,30.01,ESE,106,2.0,9.0,83,0.00,,,0.00,meteohub,2013-04-19 05:52:00,
2013-04-19 01:57:00,77.7,72.1,30.01,South,178,3.0,11.0,83,0.00,,,0.00,meteohub,2013-04-19 05:57:00,
2013-04-19 02:02:00,77.7,71.8,30.01,SE,137,3.0,11.0,82,0.00,,,0.00,meteohub,2013-04-19 06:02:00,
2013-04-19 02:07:00,77.9,72.0,30.01,SSW,193,2.0,11.0,82,0.00,,,0.00,meteohub,2013-04-19 06:07:00,
2013-04-19 02:12:00,78.1,72.1,30.01,South,171,5.0,11.0,82,0.00,,,0.00,meteohub,2013-04-19 06:12:00,
2013-04-19 02:17:00,78.1,72.5,30.00,SSW,192,0.0,11.0,83,0.00,,,0.00,meteohub,2013-04-19 06:17:00,
2013-04-19 02:22:00,77.9,72.3,30.00,South,176,5.0,11.0,83,0.00,,,0.00,meteohub,2013-04-19 06:22:00,
2013-04-19 02:27:00,77.9,72.3,30.00,SSE,161,2.0,10.0,83,0.00,,,0.00,meteohub,2013-04-19 06:27:00,
2013-04-19 02:32:00,78.1,72.5,30.00,SSW,193,3.0,10.0,83,0.00,,,0.00,meteohub,2013-04-19 06:32:00,
2013-04-19 02:37:00,78.1,72.5,30.00,ESE,106,8.0,11.0,83,0.00,,,0.00,meteohub,2013-04-19 06:37:00,
2013-04-19 02:42:00,78.1,72.1,30.00,South,182,3.0,14.0,82,0.00,,,0.00,meteohub,2013-04-19 06:42:00,
2013-04-19 02:47:00,78.3,72.7,29.99,SE,140,3.0,14.0,83,0.00,,,0.00,meteohub,2013-04-19 06:47:00,
2013-04-19 02:52:00,78.3,72.7,29.99,East,91,3.0,14.0,83,0.00,,,0.00,meteohub,2013-04-19 06:52:00,
2013-04-19 02:57:00,78.3,72.7,29.99,SSE,163,4.0,9.0,83,0.00,,,0.00,meteohub,2013-04-19 06:57:00,
2013-04-19 03:02:00,78.3,72.3,29.99,ESE,112,4.0,10.0,82,0.00,,,0.00,meteohub,2013-04-19 07:02:00,
2013-04-19 03:07:00,78.3,72.3,29.99,East,94,7.0,10.0,82,0.00,,,0.00,meteohub,2013-04-19 07:07:00,
2013-04-19 03:12:00,78.4,72.1,30.00,South,178,3.0,10.0,81,0.00,,,0.00,meteohub,2013-04-19 07:12:00,
2013-04-19 03:17:00,78.4,72.1,30.00,ESE,121,2.0,9.0,81,0.00,,,0.00,meteohub,2013-04-19 07:17:00,
2013-04-19 03:22:00,78.4,72.1,29.99,East,90,3.0,11.0,81,0.00,,,0.00,meteohub,2013-04-19 07:22:00,
2013-04-19 03:27:00,78.4,72.5,30.00,SSE,163,5.0,11.0,82,0.00,,,0.00,meteohub,2013-04-19 07:27:00,
2013-04-19 03:32:00,78.4,72.1,29.99,SSE,157,2.0,11.0,81,0.00,,,0.00,meteohub,2013-04-19 07:32:00,
2013-04-19 03:37:00,78.4,72.1,29.99,SE,129,4.0,10.0,81,0.00,,,0.00,meteohub,2013-04-19 07:37:00,
2013-04-19 03:42:00,78.4,72.1,29.99,ESE,115,5.0,14.0,81,0.00,,,0.00,meteohub,2013-04-19 07:42:00,
2013-04-19 03:47:00,78.4,72.1,29.99,SE,125,1.0,14.0,81,0.00,,,0.00,meteohub,2013-04-19 07:47:00,
2013-04-19 03:52:00,78.4,72.1,29.99,SE,132,3.0,14.0,81,0.00,,,0.00,meteohub,2013-04-19 07:52:00,
2013-04-19 03:57:00,78.4,72.1,29.99,SSE,157,3.0,11.0,81,0.00,,,0.00,meteohub,2013-04-19 07:57:00,
2013-04-19 04:02:00,78.4,72.1,29.99,SSE,168,3.0,11.0,81,0.00,,,0.00,meteohub,2013-04-19 08:02:00,
2013-04-19 04:07:00,78.4,72.1,29.99,SE,142,5.0,10.0,81,0.00,,,0.00,meteohub,2013-04-19 08:07:00,
2013-04-19 04:12:00,78.4,72.1,29.99,SE,144,2.0,10.0,81,0.00,,,0.00,meteohub,2013-04-19 08:12:00,
2013-04-19 04:17:00,78.4,72.1,29.99,SSE,159,4.0,10.0,81,0.00,,,0.00,meteohub,2013-04-19 08:17:00,
2013-04-19 04:22:00,78.4,72.1,29.99,SSW,203,3.0,10.0,81,0.00,,,0.00,meteohub,2013-04-19 08:22:00,
2013-04-19 04:27:00,78.4,72.1,29.99,SSW,202,5.0,12.0,81,0.00,,,0.00,meteohub,2013-04-19 08:27:00,
2013-04-19 04:32:00,78.4,72.1,29.99,South,184,3.0,12.0,81,0.00,,,0.00,meteohub,2013-04-19 08:32:00,
2013-04-19 04:37:00,78.4,72.1,29.99,ENE,77,1.0,12.0,81,0.00,,,0.00,meteohub,2013-04-19 08:37:00,
2013-04-19 04:42:00,78.4,71.8,29.99,SSE,163,7.0,12.0,80,0.00,,,0.00,meteohub,2013-04-19 08:42:00,
2013-04-19 04:47:00,78.4,71.8,29.99,South,189,2.0,12.0,80,0.00,,,0.00,meteohub,2013-04-19 08:47:00,
2013-04-19 04:52:00,78.4,71.8,29.99,SSW,205,6.0,12.0,80,0.00,,,0.00,meteohub,2013-04-19 08:52:00,
2013-04-19 04:56:00,78.4,71.4,29.99,East,82,6.0,10.0,79,0.00,,,0.00,meteohub,2013-04-19 08:56:00,
2013-04-19 05:01:00,78.4,71.4,29.99,SE,133,5.0,11.0,79,0.00,,,0.00,meteohub,2013-04-19 09:01:00,
2013-04-19 05:07:00,78.3,71.6,29.99,South,188,3.0,12.0,80,0.00,,,0.00,meteohub,2013-04-19 09:07:00,
2013-04-19 05:12:00,78.3,71.6,29.99,SSE,155,4.0,12.0,80,0.00,,,0.00,meteohub,2013-04-19 09:12:00,
2013-04-19 05:17:00,78.3,72.0,29.99,South,189,5.0,12.0,81,0.00,,,0.00,meteohub,2013-04-19 09:17:00,
2013-04-19 05:22:00,78.3,71.6,30.00,South,187,7.0,11.0,80,0.00,,,0.00,meteohub,2013-04-19 09:22:00,
2013-04-19 05:27:00,78.1,71.4,30.00,South,169,1.0,11.0,80,0.00,,,0.00,meteohub,2013-04-19 09:27:00,
2013-04-19 05:32:00,78.1,71.4,29.99,SSE,153,7.0,11.0,80,0.00,,,0.00,meteohub,2013-04-19 09:32:00,
2013-04-19 05:37:00,78.1,71.1,30.00,South,173,2.0,11.0,79,0.00,,,0.00,meteohub,2013-04-19 09:37:00,
2013-04-19 05:42:00,78.1,71.1,30.00,SE,140,5.0,11.0,79,0.00,,,0.00,meteohub,2013-04-19 09:42:00,
2013-04-19 05:47:00,77.9,70.9,30.00,South,173,0.0,12.0,79,0.00,,,0.00,meteohub,2013-04-19 09:47:00,
2013-04-19 05:52:00,77.9,71.2,30.00,SSW,195,4.0,12.0,80,0.00,,,0.00,meteohub,2013-04-19 09:52:00,
2013-04-19 05:57:00,77.7,71.1,30.00,SE,139,7.0,12.0,80,0.00,,,0.00,meteohub,2013-04-19 09:57:00,
2013-04-19 06:02:00,77.7,71.1,30.00,South,186,3.0,10.0,80,0.00,,,0.00,meteohub,2013-04-19 10:02:00,
2013-04-19 06:07:00,77.7,71.1,30.00,South,180,0.0,12.0,80,0.00,,,0.00,meteohub,2013-04-19 10:07:00,
2013-04-19 06:12:00,77.7,71.4,30.01,South,189,0.0,12.0,81,0.00,,,0.00,meteohub,2013-04-19 10:12:00,
2013-04-19 06:17:00,77.7,71.4,30.01,SSE,162,4.0,12.0,81,0.00,,,0.00,meteohub,2013-04-19 10:17:00,
2013-04-19 06:22:00,77.7,71.4,30.01,South,180,3.0,8.0,81,0.00,,,0.00,meteohub,2013-04-19 10:22:00,
2013-04-19 06:27:00,77.7,71.4,30.01,South,186,0.0,8.0,81,0.00,,,0.00,meteohub,2013-04-19 10:27:00,
2013-04-19 06:32:00,77.7,71.1,30.01,SSE,157,0.0,8.0,80,0.00,,,0.00,meteohub,2013-04-19 10:32:00,
2013-04-19 06:37:00,77.7,71.1,30.01,ESE,115,2.0,7.0,80,0.00,,,0.00,meteohub,2013-04-19 10:37:00,
2013-04-19 06:42:00,77.7,70.7,30.01,SSE,150,3.0,10.0,79,0.00,,,0.00,meteohub,2013-04-19 10:42:00,
2013-04-19 06:47:00,77.7,70.3,30.02,SE,137,1.0,10.0,78,0.00,,,0.00,meteohub,2013-04-19 10:47:00,
2013-04-19 06:52:00,77.7,70.7,30.02,South,171,3.0,10.0,79,0.00,,,0.00,meteohub,2013-04-19 10:52:00,
2013-04-19 06:57:00,77.7,70.7,30.01,SE,140,4.0,9.0,79,0.00,,,0.00,meteohub,2013-04-19 10:57:00,
2013-04-19 07:02:00,77.7,71.1,30.02,South,169,3.0,10.0,80,0.00,,,0.00,meteohub,2013-04-19 11:02:00,
2013-04-19 07:07:00,77.7,71.1,30.02,SSW,212,2.0,10.0,80,0.00,,,0.00,meteohub,2013-04-19 11:07:00,
2013-04-19 07:12:00,77.7,71.1,30.02,South,191,3.0,11.0,80,0.00,,,0.00,meteohub,2013-04-19 11:12:00,
2013-04-19 07:17:00,77.7,71.4,30.02,SSE,161,2.0,11.0,81,0.00,,,0.00,meteohub,2013-04-19 11:17:00,
2013-04-19 07:22:00,77.7,71.4,30.02,SSE,163,4.0,11.0,81,0.00,,,0.00,meteohub,2013-04-19 11:22:00,
2013-04-19 07:27:00,77.7,71.1,30.02,SSE,149,2.0,9.0,80,0.00,,,0.00,meteohub,2013-04-19 11:27:00,
2013-04-19 07:32:00,77.7,70.7,30.02,South,173,4.0,11.0,79,0.00,,,0.00,meteohub,2013-04-19 11:32:00,
2013-04-19 07:37:00,77.9,71.2,30.02,SE,136,2.0,11.0,80,0.00,,,0.00,meteohub,2013-04-19 11:37:00,
2013-04-19 07:42:00,78.1,71.1,30.03,SW,216,3.0,11.0,79,0.00,,,0.00,meteohub,2013-04-19 11:42:00,
2013-04-19 07:47:00,78.1,71.4,30.03,South,169,1.0,10.0,80,0.00,,,0.00,meteohub,2013-04-19 11:47:00,
2013-04-19 07:52:00,78.1,71.1,30.03,SSW,201,2.0,10.0,79,0.00,,,0.00,meteohub,2013-04-19 11:52:00,
2013-04-19 07:57:00,78.3,71.2,30.03,South,185,3.0,10.0,79,0.00,,,0.00,meteohub,2013-04-19 11:57:00,
2013-04-19 08:02:00,78.4,71.1,30.03,ESE,111,3.0,12.0,78,0.00,,,0.00,meteohub,2013-04-19 12:02:00,
2013-04-19 08:07:00,78.6,70.9,30.03,ESE,107,2.0,12.0,77,0.00,,,0.00,meteohub,2013-04-19 12:07:00,
2013-04-19 08:12:00,78.6,71.2,30.03,SE,141,2.0,12.0,78,0.00,,,0.00,meteohub,2013-04-19 12:12:00,
2013-04-19 08:17:00,78.8,71.8,30.03,SSE,159,0.0,11.0,79,0.00,,,0.00,meteohub,2013-04-19 12:17:00,
2013-04-19 08:22:00,79.2,72.1,30.04,SSE,159,1.0,10.0,79,0.00,,,0.00,meteohub,2013-04-19 12:22:00,
2013-04-19 08:27:00,79.7,72.1,30.04,SE,128,3.0,10.0,78,0.00,,,0.00,meteohub,2013-04-19 12:27:00,
2013-04-19 08:32:00,79.9,72.0,30.04,South,188,6.0,11.0,77,0.00,,,0.00,meteohub,2013-04-19 12:32:00,
2013-04-19 08:37:00,79.7,71.4,30.04,SSW,207,6.0,11.0,76,0.00,,,0.00,meteohub,2013-04-19 12:37:00,
2013-04-19 08:42:00,79.9,71.6,30.04,SSE,150,1.0,11.0,76,0.00,,,0.00,meteohub,2013-04-19 12:42:00,
2013-04-19 08:47:00,80.1,72.1,30.04,ESE,116,7.0,10.0,77,0.00,,,0.00,meteohub,2013-04-19 12:47:00,
2013-04-19 08:52:00,80.4,72.1,30.04,SSE,161,4.0,11.0,76,0.00,,,0.00,meteohub,2013-04-19 12:52:00,
2013-04-19 08:57:00,80.8,72.1,30.04,SSE,164,8.0,12.0,75,0.00,,,0.00,meteohub,2013-04-19 12:57:00,
2013-04-19 09:02:00,81.1,72.1,30.04,SE,144,2.0,12.0,74,0.00,,,0.00,meteohub,2013-04-19 13:02:00,
2013-04-19 09:07:00,81.1,71.6,30.04,SSE,157,12.0,12.0,73,0.00,,,0.00,meteohub,2013-04-19 13:07:00,
2013-04-19 09:12:00,81.3,72.7,30.04,South,186,2.0,12.0,75,0.00,,,0.00,meteohub,2013-04-19 13:12:00,
2013-04-19 09:17:00,81.7,72.5,30.04,ESE,119,5.0,12.0,74,0.00,,,0.00,meteohub,2013-04-19 13:17:00,
2013-04-19 09:22:00,81.7,72.5,30.05,SSE,163,5.0,12.0,74,0.00,,,0.00,meteohub,2013-04-19 13:22:00,
2013-04-19 09:27:00,81.9,72.7,30.05,SSW,202,8.0,12.0,74,0.00,,,0.00,meteohub,2013-04-19 13:27:00,
2013-04-19 09:32:00,81.7,73.0,30.05,SE,134,2.0,12.0,75,0.00,,,0.00,meteohub,2013-04-19 13:32:00,
2013-04-19 09:37:00,81.7,72.5,30.05,SSW,194,7.0,14.0,74,0.00,,,0.00,meteohub,2013-04-19 13:37:00,
2013-04-19 09:42:00,82.2,73.0,30.05,SE,138,6.0,14.0,74,0.00,,,0.00,meteohub,2013-04-19 13:42:00,
2013-04-19 09:47:00,82.4,73.2,30.05,SSW,192,1.0,14.0,74,0.00,,,0.00,meteohub,2013-04-19 13:47:00,
2013-04-19 09:52:00,82.8,73.6,30.05,South,175,3.0,10.0,74,0.00,,,0.00,meteohub,2013-04-19 13:52:00,
2013-04-19 09:57:00,82.6,73.4,30.05,SE,131,4.0,11.0,74,0.00,,,0.00,meteohub,2013-04-19 13:57:00,
2013-04-19 10:02:00,82.6,73.4,30.05,SSE,152,1.0,11.0,74,0.00,,,0.00,meteohub,2013-04-19 14:02:00,
2013-04-19 10:07:00,82.4,73.8,30.05,SE,127,5.0,11.0,75,0.00,,,0.00,meteohub,2013-04-19 14:07:00,
2013-04-19 10:12:00,82.8,73.6,30.05,SSE,157,3.0,10.0,74,0.00,,,0.00,meteohub,2013-04-19 14:12:00,
2013-04-19 10:17:00,83.1,73.2,30.05,South,178,5.0,11.0,72,0.00,,,0.00,meteohub,2013-04-19 14:17:00,
2013-04-19 10:22:00,82.8,73.2,30.05,ESE,117,4.0,12.0,73,0.00,,,0.00,meteohub,2013-04-19 14:22:00,
2013-04-19 10:27:00,83.1,73.9,30.05,SE,124,1.0,13.0,74,0.00,,,0.00,meteohub,2013-04-19 14:27:00,
2013-04-19 10:32:00,83.7,74.1,30.05,SSE,165,2.0,13.0,73,0.00,,,0.00,meteohub,2013-04-19 14:32:00,
2013-04-19 10:37:00,83.8,73.8,30.05,SSW,211,5.0,13.0,72,0.00,,,0.00,meteohub,2013-04-19 14:37:00,
2013-04-19 10:42:00,83.5,73.6,30.05,SSE,151,4.0,13.0,72,0.00,,,0.00,meteohub,2013-04-19 14:42:00,
2013-04-19 10:47:00,83.5,73.9,30.05,ESE,114,2.0,13.0,73,0.00,,,0.00,meteohub,2013-04-19 14:47:00,
2013-04-19 10:52:00,83.8,74.3,30.05,SW,223,5.0,13.0,73,0.00,,,0.00,meteohub,2013-04-19 14:52:00,
2013-04-19 10:57:00,83.7,73.6,30.05,ESE,123,9.0,13.0,72,0.00,,,0.00,meteohub,2013-04-19 14:57:00,
2013-04-19 11:02:00,83.7,73.6,30.05,SSE,151,8.0,13.0,72,0.00,,,0.00,meteohub,2013-04-19 15:02:00,
2013-04-19 11:07:00,83.7,73.6,30.05,East,89,6.0,13.0,72,0.00,,,0.00,meteohub,2013-04-19 15:07:00,
2013-04-19 11:12:00,83.7,73.6,30.05,SSW,200,1.0,13.0,72,0.00,,,0.00,meteohub,2013-04-19 15:12:00,
2013-04-19 11:17:00,83.8,74.3,30.05,SE,142,1.0,15.0,73,0.00,,,0.00,meteohub,2013-04-19 15:17:00,
2013-04-19 11:22:00,84.0,73.6,30.05,SE,129,1.0,15.0,71,0.00,,,0.00,meteohub,2013-04-19 15:22:00,
2013-04-19 11:27:00,83.8,73.4,30.05,SE,146,4.0,16.0,71,0.00,,,0.00,meteohub,2013-04-19 15:27:00,
2013-04-19 11:33:00,84.0,73.6,30.05,SW,217,4.0,16.0,71,0.00,,,0.00,meteohub,2013-04-19 15:33:00,
2013-04-19 11:38:00,83.8,73.8,30.05,SSW,211,9.0,16.0,72,0.00,,,0.00,meteohub,2013-04-19 15:38:00,
2013-04-19 11:43:00,84.2,75.0,30.05,SSE,162,8.0,14.0,74,0.00,,,0.00,meteohub,2013-04-19 15:43:00,
2013-04-19 11:48:00,84.2,73.8,30.05,SSW,192,6.0,14.0,71,0.00,,,0.00,meteohub,2013-04-19 15:48:00,
2013-04-19 11:53:00,84.2,74.1,30.05,South,171,3.0,16.0,72,0.00,,,0.00,meteohub,2013-04-19 15:53:00,
2013-04-19 11:58:00,84.0,73.6,30.05,SSW,198,12.0,16.0,71,0.00,,,0.00,meteohub,2013-04-19 15:58:00,
2013-04-19 12:03:00,83.7,73.6,30.05,ESE,119,3.0,16.0,72,0.00,,,0.00,meteohub,2013-04-19 16:03:00,
2013-04-19 12:08:00,83.8,74.3,30.05,SSW,194,5.0,15.0,73,0.00,,,0.00,meteohub,2013-04-19 16:08:00,
2013-04-19 12:13:00,84.6,74.5,30.05,South,180,8.0,15.0,72,0.00,,,0.00,meteohub,2013-04-19 16:13:00,
2013-04-19 12:18:00,84.4,74.3,30.05,South,169,4.0,14.0,72,0.00,,,0.00,meteohub,2013-04-19 16:18:00,
2013-04-19 12:23:00,84.9,74.5,30.05,ESE,105,3.0,14.0,71,0.00,,,0.00,meteohub,2013-04-19 16:23:00,
2013-04-19 12:28:00,84.9,74.5,30.04,SSW,201,4.0,14.0,71,0.00,,,0.00,meteohub,2013-04-19 16:28:00,
2013-04-19 12:33:00,84.6,73.2,30.04,South,178,4.0,14.0,69,0.00,,,0.00,meteohub,2013-04-19 16:33:00,
2013-04-19 12:39:00,84.4,73.9,30.04,South,184,9.0,16.0,71,0.00,,,0.00,meteohub,2013-04-19 16:39:00,
2013-04-19 12:44:00,84.6,73.2,30.04,SE,137,9.0,16.0,69,0.00,,,0.00,meteohub,2013-04-19 16:44:00,
2013-04-19 12:49:00,84.7,72.5,30.04,SSW,203,4.0,16.0,67,0.00,,,0.00,meteohub,2013-04-19 16:49:00,
2013-04-19 12:54:00,84.9,72.3,30.04,SE,146,4.0,12.0,66,0.00,,,0.00,meteohub,2013-04-19 16:54:00,
2013-04-19 12:59:00,84.6,72.9,30.04,SSE,155,3.0,12.0,68,0.00,,,0.00,meteohub,2013-04-19 16:59:00,
2013-04-19 13:05:00,84.6,73.2,30.04,SE,134,3.0,12.0,69,0.00,,,0.00,meteohub,2013-04-19 17:05:00,
2013-04-19 13:10:00,84.9,73.6,30.04,SE,136,4.0,16.0,69,0.00,,,0.00,meteohub,2013-04-19 17:10:00,
2013-04-19 13:15:00,84.9,73.2,30.03,SSE,165,5.0,16.0,68,0.00,,,0.00,meteohub,2013-04-19 17:15:00,
2013-04-19 13:20:00,84.7,73.4,30.03,ESE,118,7.0,16.0,69,0.00,,,0.00,meteohub,2013-04-19 17:20:00,
2013-04-19 13:25:00,84.7,73.4,30.03,SSW,212,6.0,16.0,69,0.00,,,0.00,meteohub,2013-04-19 17:25:00,
2013-04-19 13:30:00,84.9,73.2,30.03,SSE,148,8.0,16.0,68,0.00,,,0.00,meteohub,2013-04-19 17:30:00,
2013-04-19 13:35:00,84.9,73.6,30.03,SE,138,5.0,16.0,69,0.00,,,0.00,meteohub,2013-04-19 17:35:00,
2013-04-19 13:40:00,84.7,73.4,30.03,ESE,117,2.0,14.0,69,0.00,,,0.00,meteohub,2013-04-19 17:40:00,
2013-04-19 13:45:00,85.1,73.4,30.03,SW,214,3.0,14.0,68,0.00,,,0.00,meteohub,2013-04-19 17:45:00,
2013-04-19 13:50:00,84.7,73.4,30.03,SSE,163,4.0,14.0,69,0.00,,,0.00,meteohub,2013-04-19 17:50:00,
2013-04-19 13:55:00,84.6,73.8,30.03,SSW,195,8.0,15.0,70,0.00,,,0.00,meteohub,2013-04-19 17:55:00,
2013-04-19 14:00:00,84.4,73.6,30.03,SE,146,3.0,16.0,70,0.00,,,0.00,meteohub,2013-04-19 18:00:00,
2013-04-19 14:05:00,84.9,74.1,30.03,SSE,165,4.0,16.0,70,0.00,,,0.00,meteohub,2013-04-19 18:05:00,
2013-04-19 14:10:00,85.6,74.3,30.02,SSW,211,3.0,14.0,69,0.00,,,0.00,meteohub,2013-04-19 18:10:00,
2013-04-19 14:15:00,85.8,74.8,30.02,South,179,1.0,12.0,70,0.00,,,0.00,meteohub,2013-04-19 18:15:00,
2013-04-19 14:20:00,86.4,75.0,30.02,South,188,5.0,12.0,69,0.00,,,0.00,meteohub,2013-04-19 18:20:00,
2013-04-19 14:25:00,86.0,74.7,30.02,South,185,4.0,15.0,69,0.00,,,0.00,meteohub,2013-04-19 18:25:00,
2013-04-19 14:30:00,85.1,74.1,30.02,SSW,213,3.0,17.0,70,0.00,,,0.00,meteohub,2013-04-19 18:30:00,
2013-04-19 14:35:00,84.9,74.1,30.02,SE,131,4.0,17.0,70,0.00,,,0.00,meteohub,2013-04-19 18:35:00,
2013-04-19 14:40:00,85.1,74.1,30.02,South,171,11.0,17.0,70,0.00,,,0.00,meteohub,2013-04-19 18:40:00,
2013-04-19 14:45:00,85.1,74.1,30.01,ESE,109,2.0,15.0,70,0.00,,,0.00,meteohub,2013-04-19 18:45:00,
2013-04-19 14:50:00,85.3,74.8,30.01,SSW,196,4.0,15.0,71,0.00,,,0.00,meteohub,2013-04-19 18:50:00,
2013-04-19 14:55:00,84.9,74.8,30.01,SW,221,8.0,15.0,72,0.00,,,0.00,meteohub,2013-04-19 18:55:00,
2013-04-19 15:00:00,84.9,74.1,30.01,SSW,196,6.0,15.0,70,0.00,,,0.00,meteohub,2013-04-19 19:00:00,
2013-04-19 15:05:00,84.9,73.2,30.01,SSW,197,9.0,15.0,68,0.00,,,0.00,meteohub,2013-04-19 19:05:00,
2013-04-19 15:10:00,84.9,73.6,30.01,SSE,161,3.0,18.0,69,0.00,,,0.00,meteohub,2013-04-19 19:10:00,
2013-04-19 15:15:00,84.7,73.4,30.01,ESE,110,7.0,18.0,69,0.00,,,0.00,meteohub,2013-04-19 19:15:00,
2013-04-19 15:20:00,84.6,73.2,30.01,South,187,6.0,18.0,69,0.00,,,0.00,meteohub,2013-04-19 19:20:00,
2013-04-19 15:25:00,84.7,73.4,30.01,South,170,11.0,13.0,69,0.00,,,0.00,meteohub,2013-04-19 19:25:00,
2013-04-19 15:30:00,84.9,72.7,30.00,SSW,205,6.0,13.0,67,0.00,,,0.00,meteohub,2013-04-19 19:30:00,
2013-04-19 15:35:00,85.1,72.9,30.00,SSW,196,7.0,12.0,67,0.00,,,0.00,meteohub,2013-04-19 19:35:00,
2013-04-19 15:40:00,84.6,72.3,30.00,SSE,165,6.0,13.0,67,0.00,,,0.00,meteohub,2013-04-19 19:40:00,
2013-04-19 15:45:00,84.2,72.5,30.00,ESE,111,5.0,15.0,68,0.00,,,0.00,meteohub,2013-04-19 19:45:00,
2013-04-19 15:50:00,84.0,72.3,29.99,SW,214,11.0,16.0,68,0.00,,,0.00,meteohub,2013-04-19 19:50:00,
2013-04-19 15:55:00,84.0,72.3,29.99,SSE,151,8.0,16.0,68,0.00,,,0.00,meteohub,2013-04-19 19:55:00,
2013-04-19 16:00:00,84.4,72.7,29.99,SE,132,5.0,16.0,68,0.00,,,0.00,meteohub,2013-04-19 20:00:00,
2013-04-19 16:05:00,84.4,72.1,29.99,SSW,210,7.0,15.0,67,0.00,,,0.00,meteohub,2013-04-19 20:05:00,
2013-04-19 16:10:00,83.8,72.5,29.99,SSW,209,8.0,15.0,69,0.00,,,0.00,meteohub,2013-04-19 20:10:00,
2013-04-19 16:15:00,84.4,71.8,29.98,SE,128,5.0,15.0,66,0.00,,,0.00,meteohub,2013-04-19 20:15:00,
2013-04-19 16:20:00,84.4,72.1,29.98,SE,129,5.0,15.0,67,0.00,,,0.00,meteohub,2013-04-19 20:20:00,
2013-04-19 16:25:00,84.2,72.0,29.98,South,181,2.0,14.0,67,0.00,,,0.00,meteohub,2013-04-19 20:25:00,
2013-04-19 16:30:00,84.4,72.1,29.98,South,186,4.0,14.0,67,0.00,,,0.00,meteohub,2013-04-19 20:30:00,
2013-04-19 16:35:00,84.4,72.7,29.98,East,96,6.0,14.0,68,0.00,,,0.00,meteohub,2013-04-19 20:35:00,
2013-04-19 16:40:00,83.8,71.8,29.97,SE,135,9.0,13.0,67,0.00,,,0.00,meteohub,2013-04-19 20:40:00,
2013-04-19 16:45:00,83.8,72.1,29.98,East,101,2.0,14.0,68,0.00,,,0.00,meteohub,2013-04-19 20:45:00,
2013-04-19 16:50:00,83.8,72.1,29.98,SSW,202,7.0,14.0,68,0.00,,,0.00,meteohub,2013-04-19 20:50:00,
2013-04-19 16:55:00,83.8,72.1,29.98,SSW,197,6.0,14.0,68,0.00,,,0.00,meteohub,2013-04-19 20:55:00,
2013-04-19 17:00:00,83.7,72.3,29.98,SSE,162,7.0,13.0,69,0.00,,,0.00,meteohub,2013-04-19 21:00:00,
2013-04-19 17:05:00,83.1,72.3,29.97,SE,127,1.0,14.0,70,0.00,,,0.00,meteohub,2013-04-19 21:05:00,
2013-04-19 17:10:00,83.1,72.3,29.97,South,180,4.0,14.0,70,0.00,,,0.00,meteohub,2013-04-19 21:10:00,
2013-04-19 17:16:00,83.1,72.3,29.98,SSE,162,5.0,14.0,70,0.00,,,0.00,meteohub,2013-04-19 21:16:00,
2013-04-19 17:21:00,82.9,72.5,29.97,SSE,168,9.0,14.0,71,0.00,,,0.00,meteohub,2013-04-19 21:21:00,
2013-04-19 17:26:00,82.8,72.9,29.98,SE,142,2.0,14.0,72,0.00,,,0.00,meteohub,2013-04-19 21:26:00,
2013-04-19 17:31:00,82.8,72.9,29.98,SSE,166,1.0,14.0,72,0.00,,,0.00,meteohub,2013-04-19 21:31:00,
2013-04-19 17:36:00,82.6,73.0,29.98,East,92,5.0,14.0,73,0.00,,,0.00,meteohub,2013-04-19 21:36:00,
2013-04-19 17:41:00,81.9,72.7,29.98,SSE,167,5.0,11.0,74,0.00,,,0.00,meteohub,2013-04-19 21:41:00,
2013-04-19 17:46:00,81.3,72.7,29.97,South,188,4.0,11.0,75,0.00,,,0.00,meteohub,2013-04-19 21:46:00,
2013-04-19 17:51:00,81.1,73.2,29.97,South,178,3.0,11.0,77,0.00,,,0.00,meteohub,2013-04-19 21:51:00,
2013-04-19 17:56:00,81.7,73.8,29.98,South,170,6.0,11.0,77,0.00,,,0.00,meteohub,2013-04-19 21:56:00,
2013-04-19 18:01:00,81.7,73.4,29.97,SSE,150,6.0,13.0,76,0.00,,,0.00,meteohub,2013-04-19 22:01:00,
2013-04-19 18:06:00,81.9,73.2,29.97,SSE,167,3.0,13.0,75,0.00,,,0.00,meteohub,2013-04-19 22:06:00,
2013-04-19 18:11:00,82.2,73.6,29.98,South,190,7.0,13.0,75,0.00,,,0.00,meteohub,2013-04-19 22:11:00,
2013-04-19 18:16:00,82.0,73.4,29.98,SE,131,3.0,12.0,75,0.00,,,0.00,meteohub,2013-04-19 22:16:00,
2013-04-19 18:21:00,81.9,73.2,29.98,SSW,196,7.0,15.0,75,0.00,,,0.00,meteohub,2013-04-19 22:21:00,
2013-04-19 18:26:00,81.9,73.2,29.98,South,182,2.0,15.0,75,0.00,,,0.00,meteohub,2013-04-19 22:26:00,
2013-04-19 18:31:00,81.7,73.0,29.98,SSE,168,4.0,15.0,75,0.00,,,0.00,meteohub,2013-04-19 22:31:00,
2013-04-19 18:36:00,81.7,73.0,29.98,ESE,105,0.0,14.0,75,0.00,,,0.00,meteohub,2013-04-19 22:36:00,
2013-04-19 18:41:00,81.5,73.2,29.98,SSE,155,1.0,11.0,76,0.00,,,0.00,meteohub,2013-04-19 22:41:00,
2013-04-19 18:46:00,81.3,73.4,29.98,South,178,3.0,10.0,77,0.00,,,0.00,meteohub,2013-04-19 22:46:00,
2013-04-19 18:51:00,81.1,73.2,29.98,South,174,3.0,9.0,77,0.00,,,0.00,meteohub,2013-04-19 22:51:00,
2013-04-19 18:56:00,80.8,72.9,29.97,SE,136,5.0,8.0,77,0.00,,,0.00,meteohub,2013-04-19 22:56:00,
2013-04-19 19:01:00,80.8,73.2,29.98,ESE,123,3.0,8.0,78,0.00,,,0.00,meteohub,2013-04-19 23:01:00,
2013-04-19 19:06:00,80.8,73.2,29.98,SE,145,2.0,8.0,78,0.00,,,0.00,meteohub,2013-04-19 23:06:00,
2013-04-19 19:11:00,80.6,73.0,29.97,SSW,195,1.0,10.0,78,0.00,,,0.00,meteohub,2013-04-19 23:11:00,
2013-04-19 19:16:00,80.4,73.2,29.97,East,92,5.0,10.0,79,0.00,,,0.00,meteohub,2013-04-19 23:16:00,
2013-04-19 19:21:00,80.2,73.6,29.97,SSE,154,0.0,10.0,80,0.00,,,0.00,meteohub,2013-04-19 23:21:00,
2013-04-19 19:26:00,80.1,73.4,29.97,SE,130,4.0,8.0,80,0.00,,,0.00,meteohub,2013-04-19 23:26:00,
2013-04-19 19:31:00,80.1,73.8,29.97,SSW,198,3.0,9.0,81,0.00,,,0.00,meteohub,2013-04-19 23:31:00,
2013-04-19 19:36:00,79.9,73.6,29.97,South,191,1.0,9.0,81,0.00,,,0.00,meteohub,2013-04-19 23:36:00,
2013-04-19 19:41:00,79.9,73.6,29.97,East,97,5.0,10.0,81,0.00,,,0.00,meteohub,2013-04-19 23:41:00,
2013-04-19 19:46:00,79.5,73.2,29.98,South,170,6.0,10.0,81,0.00,,,0.00,meteohub,2013-04-19 23:46:00,
2013-04-19 19:51:00,79.5,72.9,29.98,SSE,154,2.0,10.0,80,0.00,,,0.00,meteohub,2013-04-19 23:51:00,
2013-04-19 19:56:00,79.5,73.2,29.99,SSW,194,5.0,8.0,81,0.00,,,0.00,meteohub,2013-04-19 23:56:00,
2013-04-19 20:01:00,79.5,73.2,30.00,South,185,0.0,8.0,81,0.00,,,0.00,meteohub,2013-04-20 00:01:00,
2013-04-19 20:06:00,79.5,73.2,30.00,South,172,2.0,8.0,81,0.00,,,0.00,meteohub,2013-04-20 00:06:00,
2013-04-19 20:11:00,79.5,73.2,30.00,SSW,211,2.0,8.0,81,0.00,,,0.00,meteohub,2013-04-20 00:11:00,
2013-04-19 20:16:00,79.3,73.4,30.01,ESE,123,3.0,8.0,82,0.00,,,0.00,meteohub,2013-04-20 00:16:00,
2013-04-19 20:21:00,79.3,73.4,30.01,South,190,5.0,8.0,82,0.00,,,0.00,meteohub,2013-04-20 00:21:00,
2013-04-19 20:26:00,79.3,73.4,30.01,SE,130,1.0,8.0,82,0.00,,,0.00,meteohub,2013-04-20 00:26:00,
2013-04-19 20:31:00,79.3,73.4,30.01,SE,129,0.0,7.0,82,0.00,,,0.00,meteohub,2013-04-20 00:31:00,
2013-04-19 20:36:00,79.3,73.8,30.01,South,186,2.0,7.0,83,0.00,,,0.00,meteohub,2013-04-20 00:36:00,
2013-04-19 20:41:00,79.3,73.8,30.01,SE,132,0.0,7.0,83,0.00,,,0.00,meteohub,2013-04-20 00:41:00,
2013-04-19 20:46:00,79.3,73.8,30.02,South,172,4.0,6.0,83,0.00,,,0.00,meteohub,2013-04-20 00:46:00,
2013-04-19 20:51:00,79.2,73.6,30.01,SSE,155,0.0,7.0,83,0.00,,,0.00,meteohub,2013-04-20 00:51:00,
2013-04-19 20:56:00,79.2,73.2,30.02,South,174,0.0,7.0,82,0.00,,,0.00,meteohub,2013-04-20 00:56:00,
2013-04-19 21:02:00,79.3,73.8,30.02,South,173,4.0,7.0,83,0.00,,,0.00,meteohub,2013-04-20 01:02:00,
2013-04-19 21:07:00,79.3,73.8,30.02,South,186,0.0,6.0,83,0.00,,,0.00,meteohub,2013-04-20 01:07:00,
2013-04-19 21:12:00,79.3,73.8,30.02,SSE,153,0.0,6.0,83,0.00,,,0.00,meteohub,2013-04-20 01:12:00,
2013-04-19 21:17:00,79.3,73.8,30.03,SSW,199,3.0,6.0,83,0.00,,,0.00,meteohub,2013-04-20 01:17:00,
2013-04-19 21:22:00,79.3,73.4,30.03,SE,146,5.0,6.0,82,0.00,,,0.00,meteohub,2013-04-20 01:22:00,
2013-04-19 21:27:00,79.3,73.4,30.03,SSE,165,1.0,7.0,82,0.00,,,0.00,meteohub,2013-04-20 01:27:00,
2013-04-19 21:32:00,79.3,73.4,30.03,SSE,148,0.0,7.0,82,0.00,,,0.00,meteohub,2013-04-20 01:32:00,
2013-04-19 21:37:00,79.3,73.8,30.03,SSE,160,1.0,7.0,83,0.00,,,0.00,meteohub,2013-04-20 01:37:00,
2013-04-19 21:42:00,79.3,73.8,30.03,SSE,155,2.0,5.0,83,0.00,,,0.00,meteohub,2013-04-20 01:42:00,
2013-04-19 21:47:00,79.3,74.1,30.03,ESE,118,3.0,7.0,84,0.00,,,0.00,meteohub,2013-04-20 01:47:00,
2013-04-19 21:52:00,79.3,74.5,30.04,SSW,194,1.0,7.0,85,0.00,,,0.00,meteohub,2013-04-20 01:52:00,
2013-04-19 21:57:00,79.2,74.3,30.04,SSW,193,0.0,7.0,85,0.00,,,0.00,meteohub,2013-04-20 01:57:00,
2013-04-19 22:02:00,79.2,74.7,30.04,SE,142,2.0,7.0,86,0.00,,,0.00,meteohub,2013-04-20 02:02:00,
2013-04-19 22:07:00,79.2,74.7,30.04,South,190,1.0,3.0,86,0.00,,,0.00,meteohub,2013-04-20 02:07:00,
2013-04-19 22:12:00,79.0,74.5,30.04,SSE,165,0.0,4.0,86,0.00,,,0.00,meteohub,2013-04-20 02:12:00,
2013-04-19 22:17:00,79.0,74.5,30.04,SSW,195,2.0,4.0,86,0.00,,,0.00,meteohub,2013-04-20 02:17:00,
2013-04-19 22:22:00,79.2,74.7,30.04,SE,140,0.0,5.0,86,0.00,,,0.00,meteohub,2013-04-20 02:22:00,
2013-04-19 22:27:00,79.2,74.7,30.04,South,169,0.0,5.0,86,0.00,,,0.00,meteohub,2013-04-20 02:27:00,
2013-04-19 22:32:00,79.2,74.7,30.04,SE,131,0.0,5.0,86,0.00,,,0.00,meteohub,2013-04-20 02:32:00,
2013-04-19 22:37:00,79.0,73.8,30.04,South,179,4.0,7.0,84,0.00,,,0.00,meteohub,2013-04-20 02:37:00,
2013-04-19 22:42:00,79.0,73.8,30.04,SSE,156,2.0,7.0,84,0.00,,,0.00,meteohub,2013-04-20 02:42:00,
2013-04-19 22:46:00,79.0,73.8,30.04,SSW,205,0.0,7.0,84,0.00,,,0.00,meteohub,2013-04-20 02:46:00,
2013-04-19 22:52:00,79.0,74.1,30.04,SSE,167,2.0,6.0,85,0.00,,,0.00,meteohub,2013-04-20 02:52:00,
2013-04-19 22:57:00,78.6,73.8,30.04,South,190,1.0,6.0,85,0.00,,,0.00,meteohub,2013-04-20 02:57:00,
2013-04-19 23:02:00,78.6,74.1,30.04,SSW,196,4.0,6.0,86,0.00,,,0.00,meteohub,2013-04-20 03:02:00,
2013-04-19 23:07:00,78.6,73.8,30.04,SE,131,1.0,6.0,85,0.00,,,0.00,meteohub,2013-04-20 03:07:00,
2013-04-19 23:12:00,78.3,73.0,30.04,SSE,163,0.0,8.0,84,0.00,,,0.00,meteohub,2013-04-20 03:12:00,
2013-04-19 23:17:00,77.9,72.3,30.04,SSE,152,1.0,8.0,83,0.00,,,0.00,meteohub,2013-04-20 03:17:00,
2013-04-19 23:22:00,77.7,72.5,30.05,SSE,153,2.0,8.0,84,0.00,,,0.00,meteohub,2013-04-20 03:22:00,
2013-04-19 23:27:00,77.7,72.9,30.04,East,101,1.0,7.0,85,0.00,,,0.00,meteohub,2013-04-20 03:27:00,
2013-04-19 23:32:00,77.7,73.2,30.04,ESE,105,2.0,7.0,86,0.00,,,0.00,meteohub,2013-04-20 03:32:00,
2013-04-19 23:37:00,77.7,73.6,30.04,SSW,194,3.0,7.0,87,0.00,,,0.00,meteohub,2013-04-20 03:37:00,
2013-04-19 23:42:00,77.9,73.8,30.04,South,182,5.0,7.0,87,0.00,,,0.00,meteohub,2013-04-20 03:42:00,
2013-04-19 23:47:00,78.1,73.6,30.04,SE,145,0.0,8.0,86,0.00,,,0.00,meteohub,2013-04-20 03:47:00,
2013-04-19 23:52:00,78.1,73.9,30.03,SSW,211,3.0,8.0,87,0.00,,,0.00,meteohub,2013-04-20 03:52:00,
2013-04-19 23:57:00,78.1,73.9,30.03,SSE,157,1.0,9.0,87,0.00,,,0.00,meteohub,2013-04-20 03:57:00,